Simultaneous Nadir Overpasses (SNOs) Predictions

Prediction of SNOs between LANDSAT-8 and METOP-B Satellite Orbit:

Table of predicted SNOs for the next 14.0 days since TLE Epoch: 7/3/2021
Index Date (LANDSAT-8) Time (LANDSAT-8) Lat,Lon (LANDSAT-8) SZA (LANDSAT-8 ) Date (METOP-B) Time (METOP-B) Lat,Lon (METOP-B) SZA (METOP-B ) Distance(km) Time Diff (sec)
1 07/04/2021 12:40:21 -81.09,-150.49 119.71 07/04/2021 12:39:27 -81.10,-150.43 119.72 1.17 54
2 07/04/2021 13:29:46 81.13, 17.64 60.37 07/04/2021 13:30:05 81.13, 17.77 60.40 2.40 19
3 07/07/2021 08:14:35 -81.11, -83.85 119.41 07/07/2021 08:13:49 -81.10, -83.89 119.43 0.62 46
4 07/07/2021 09:04:00 81.14, 84.24 60.67 07/07/2021 09:04:27 81.13, 84.31 60.68 1.17 27
5 07/10/2021 03:48:51 -81.09, -17.61 119.12 07/10/2021 03:48:13 -81.10, -17.73 119.15 2.14 38
6 07/10/2021 04:38:16 81.12, 150.45 60.95 07/10/2021 04:38:51 81.13, 150.45 60.97 0.43 35
7 07/12/2021 23:23:06 -81.10, 48.97 118.73 07/12/2021 23:22:36 -81.10, 48.78 118.76 3.28 30
8 07/13/2021 00:12:31 81.13,-143.00 61.34 07/13/2021 00:13:14 81.13,-143.04 61.36 0.71 43
9 07/15/2021 18:57:20 -81.11, 115.51 118.29 07/15/2021 18:56:57 -81.11, 115.64 118.28 2.37 23



Historial Predications of SNOs between LANDSAT-8 and METOP-B
